User: anonymous   Login
Location: Caltech
(34.1382°N, 118.1253°W)
Time: 02:38:51
(UTC-07:00)
Language:

Saudisat 1A - Orbit

View from above orbital plane
View from above orbital plane
View from above satellite
View from above satellite

Ground track
Ground track

The orbit data is extracted from the following two-line orbital elements,

1 26546U 00057B   16208.52459562  .00000108  00000-0  27410-4 0  9997
2 26546  64.5545 274.4379 0048152 264.1483  95.4137 14.90274088858124
Epoch (UTC): 26 July 2016 12:35:25
Eccentricity: 0.0048152
inclination: 64.5545°
perigee height: 563 km
apogee height: 630 km
right ascension of ascending node: 274.4379°
argument of perigee: 264.1483°
revolutions per day: 14.90274088
mean anomaly at epoch: 95.4137°
orbit number at epoch: 85812

The dashed part of the orbit path shows where the satellite is in the earth's shadow,  

DLR